Location: Im Fang
(46.6019°N, 7.2397°E)
Time: 17:12:02
(UTC+00:00)

Envisat - Pass Details

Date: 13 March 2021
Orbit: 764 x 766 km, 98.1° (Epoch: 17 April)

Event Time Altitude Azimuth Distance (km) Brightness Sun altitude
Rises 03:47:23 0° 31° (NNE) 3,242 7.0 -21.2°
Reaches altitude 10° 03:50:51 10° 55° (NE) 2,309 6.6 -20.6°
Maximum altitude 03:53:33 14° 88° (E) 2,019 6.2 -20.2°
Drops below altitude 10° 03:56:13 10° 120° (ESE) 2,299 6.0 -19.8°
Sets 03:59:38 0° 145° (SE) 3,218 6.5 -19.2°
